sat.trackr.live / text

‹ back to catalog

STARLINK-34537

NORAD 64778 · 2025-147Z

PAYLOAD ACTIVE UNKNOWN

§ Identity

Operator
Country
US
Launch date
2025-07-08
Launch site
AFETR
Launch vehicle
Mass (kg)
RCS (m²)

Purposes: comms

External: N2YO · Heavens-Above · Gunter

§ Orbital elements

Epoch: 2026-09-20T17:26:49.458048Z

Period
93.85 min
Inclination
53.1588°
Eccentricity
0.0001188
Mean motion
15.34393992 rev/d
Perigee alt
461.9 km
Apogee alt
463.5 km
Semi-major
6,840.9 km
B*
5.8044e-4
RAAN
32.3126°
Arg perigee
78.3233°
Mean anomaly
281.7903°
Rev number
6,898

§ Raw data

STARLINK-345371 64778U 25147Z   26263.72696132  .00019282  00000+0  58044-3 0  99912 64778  53.1588  32.3126 0001188  78.3233 281.7903 15.34393992 68984

JSON: /api/v1/satellites/64778 · /tle

For live sub-satellite position, see the globe view (requires WebGL).

§ Visibility from observer

Set your observer location to see the next 7 days of passes ≥ 10°. The values pass through the URL so the page stays shareable.

No JS? Fill the form by hand. The geolocation button needs JavaScript.